LEMUR-2-VU (43558 NORAD) Tracking and Keplerian Element Data

This shows tracking and keplerian element data for the satellite.

Feedback or suggestion? Click here.




ElementValue
Catalog43558
NameLEMUR-2-VU
Epoch Orbit4297
Epoch Day113.56719923
Epoch Year2019
RAAN325.1993
Inclination51.6432
Eccentricity0.0007247
Argument of Perigee227.7672
Mean Anonmoly132.2694
Mean Motion15.29082733
Decay Rate1.286E-05
L11 43558U 18046E 19113.56719923 .00001286 00000-0 57392-4 0 9998
L22 43558 51.6432 325.1993 0007247 227.7672 132.2694 15.29082733 42972

Live tracking and technical data element details for LEMUR-2-VU (NORAD 43558). LEMUR-2-VU can be tracked NOW for your location showing map with azimuth and elevation plus other details from your city location.

Track the satellite on the map from your city or location and see movement details for azimuth, elevation, latitude, longitude, range, height, and movement on the map or in text.







IsCatalogInMostPopularTable: catalog: 43558, numindb: 103
Update: records affected: 1



GetName: 43558 LEMUR-2-VU

Hit Count: updated at: Thu, 25 Apr 2019 20:14:01 GMT